Zurück zum Katalog

COSMOS 1247 DEB

AktivHEO
NORAD 12984·DEBRIS·🇷🇺 Russia

Gestartet Feb 19, 1981 von Plesetsk Cosmodrome

Loading…

Nächste Überflüge (nächste 24 Stunden)

TLE

AktuellSource: Space-Track

Epoche: Sep 11, 2026, 07:57 UTC

1 12984U 81016F   26254.33175779 -.00000676  00000-0  00000-0 0  9991
2 12984  69.6605   1.3047 6093563 335.9505   4.7426  2.02678686331718

Verfolge COSMOS 1247 DEB in Echtzeit mit AllMySat

Download on the App Store